Location: La Chapelle
(48.3135°N, 1.3085°W)
Time: 07:34:49
(UTC+00:00)

Meteor 2-12 Rocket - Pass Details

Date: 03 March 2021
Orbit: 936 x 956 km, 82.5° (Epoch: 12 April)

Event Time Altitude Azimuth Distance (km) Brightness Sun altitude
Rises 18:49:43 0° 177° (S) 3,585 7.4 -10.3°
Reaches altitude 10° 18:52:12 10° 174° (S) 2,647 6.7 -10.7°
Maximum altitude 18:58:10 64° 94° (E) 1,039 4.4 -11.7°
Drops below altitude 10° 19:04:12 10° 15° (NNE) 2,678 6.7 -12.7°
Sets 19:06:44 0° 13° (NNE) 3,631 7.4 -13.1°
